Погода в Галвестоне

США     29°17′48″N   94°48′12″W
темп.,
°C
ветер,
м/с
пор.,
м/с
влажн.,
%
обл.,
%
осадки,
мм/ч
давл.,
гПа
погр.,
м
19 апреля, пн
пн1901:00+18ссв885725 0.0 1018983
04:00+17св886417 0.0 1017685
07:00+16св776521 0.0 1019579
10:00+17св556399 0.0 1019523
13:00+18всв445696 0.0 1018733
16:00+18вюв445099 0.0 1016709
19:00+19ююв3349100 0.0 1016679
22:00+19ююв335098 0.0 1017337
20 апреля, вт
вт2001:00+19зсз115176 0.0 1017536
04:00+19ссз115515 0.0 1016572
07:00+18св21621 0.0 1017525
10:00+18всв21680 0.0 1018425
13:00+19вюв22630 0.0 1017398
16:00+20ююв43540 0.0 1016440
19:00+20ююв54560 0.0 1016370
22:00+20ю44592 0.0 1018301
21 апреля, ср
ср2101:00+16с1212780 0.0 1020564
04:00+14ссв1111772 0.0 1021541
07:00+12ссв1111780 0.0 1023564
10:00+12ссв88763 0.0 1025613
13:00+15ссв67645 0.0 1024707
16:00+18всв45544 0.0 1021900
19:00+19в56522 0.0 10201003
22:00+20в77543 0.0 10211194
22 апреля, чт
чт2201:00+18в9961100 0.0 10211069
04:00+17в99615 0.0 10201014
07:00+17в787195 0.0 10211023
10:00+19в8873100 0.0 10221011
13:00+19в10107499 0.0 10201004
16:00+20в11117896 0.1 1018977
19:00+20вюв12127981 0.2 1017928
22:00+21вюв12138274 0.2 1018873
23 апреля, пт
пт2301:00+21вюв111385100 0.3 1017795
04:00+21вюв101291100 0.8 1015659
07:00+21вюв91293100 6.9 1015679
10:00+22вюв101393100 2.6 1014668
13:00+22юв81397100 10.4 1012489
16:00+23ююв91591100 7.1 1009470
19:00+23ююв9159578 7.6 1008458
22:00+23ююв101593100 0.0 1008333